SKW5500 KORD-KCID

Flight info

Callsign SKW5500
Flight time 0h 38m
Altitude 24000
Route NOONY NIGHT
Aircraft CRJ7/M-SDFGIRWY/S

Departure

Time 2026-05-05 01:52
Airport Chicago O'Hare International Airport (KORD)

Arrival

Time 2026-05-05 02:30
Airport The Eastern Iowa Airport (KCID)
Time Latitude Longitude Altitude Speed Heading
2026-05-05 01:27 41.98210 -87.90418 668 ft 0 kts 180°
2026-05-05 01:31 41.98211 -87.90418 668 ft 0 kts 180°
2026-05-05 01:41 41.98213 -87.90418 668 ft 1 kts 180°
2026-05-05 01:41 41.98230 -87.90419 668 ft 3 kts 166°
2026-05-05 01:42 41.98248 -87.90428 668 ft 3 kts 150°
2026-05-05 01:42 41.98265 -87.90443 667 ft 3 kts 150°
2026-05-05 01:42 41.98279 -87.90450 667 ft 3 kts 133°
2026-05-05 01:42 41.98279 -87.90451 667 ft 2 kts 90°
2026-05-05 01:43 41.98281 -87.90474 667 ft 3 kts 114°
2026-05-05 01:43 41.98289 -87.90494 666 ft 2 kts 101°
2026-05-05 01:43 41.98290 -87.90501 666 ft 1 kts 90°
2026-05-05 01:45 41.98290 -87.90500 666 ft 1 kts 90°
2026-05-05 01:45 41.98290 -87.90452 666 ft 9 kts 90°
2026-05-05 01:46 41.98290 -87.90339 667 ft 16 kts 90°
2026-05-05 01:46 41.98290 -87.90185 667 ft 17 kts 90°
2026-05-05 01:46 41.98290 -87.90029 667 ft 17 kts 90°
2026-05-05 01:46 41.98290 -87.89877 668 ft 16 kts 90°
2026-05-05 01:47 41.98290 -87.89726 668 ft 16 kts 90°
2026-05-05 01:47 41.98290 -87.89561 667 ft 18 kts 90°
2026-05-05 01:47 41.98290 -87.89389 667 ft 18 kts 90°
2026-05-05 01:47 41.98289 -87.89216 666 ft 19 kts 90°
2026-05-05 01:48 41.98290 -87.89035 666 ft 19 kts 90°
2026-05-05 01:48 41.98296 -87.88951 665 ft 0 kts 65°
2026-05-05 01:49 41.98296 -87.88952 665 ft 0 kts 65°
2026-05-05 01:49 41.98296 -87.88951 665 ft 0 kts 65°
2026-05-05 01:49 41.98297 -87.88948 665 ft 0 kts 64°
2026-05-05 01:50 41.98305 -87.88932 665 ft 6 kts 47°
2026-05-05 01:51 41.98371 -87.88948 662 ft 13 kts 301°
2026-05-05 01:51 41.98390 -87.89174 664 ft 46 kts 269°
2026-05-05 01:51 41.98388 -87.89851 666 ft 98 kts 269°
2026-05-05 01:51 41.98388 -87.90967 665 ft 138 kts 270°
2026-05-05 01:52 41.98393 -87.92392 747 ft 162 kts 268°
2026-05-05 01:52 41.98465 -87.93930 1173 ft 168 kts 270°
2026-05-05 01:52 41.98638 -87.95498 1672 ft 172 kts 276°
2026-05-05 01:52 41.98879 -87.97111 2155 ft 178 kts 273°
2026-05-05 01:53 41.99059 -87.98780 2681 ft 183 kts 272°
2026-05-05 01:53 41.99236 -88.00532 3162 ft 194 kts 274°
2026-05-05 01:53 41.99382 -88.02381 3658 ft 203 kts 272°
2026-05-05 01:53 41.99482 -88.04298 4157 ft 212 kts 272°
2026-05-05 01:54 41.99600 -88.06315 4669 ft 221 kts 274°
2026-05-05 01:54 41.99750 -88.08403 5175 ft 228 kts 274°
2026-05-05 01:54 41.99901 -88.10554 5690 ft 235 kts 275°
2026-05-05 01:54 42.00053 -88.12772 6199 ft 239 kts 274°
2026-05-05 01:55 42.00207 -88.15024 6691 ft 248 kts 275°
2026-05-05 01:55 42.00369 -88.17392 7197 ft 261 kts 275°
2026-05-05 01:55 42.00538 -88.19839 7706 ft 251 kts 275°
2026-05-05 01:55 42.00694 -88.22023 8204 ft 220 kts 276°
2026-05-05 01:56 42.00851 -88.24047 8709 ft 219 kts 276°
2026-05-05 01:56 42.01014 -88.26139 9227 ft 231 kts 276°
2026-05-05 01:56 42.01175 -88.28343 9737 ft 243 kts 275°
2026-05-05 01:56 42.01350 -88.30660 10229 ft 254 kts 275°
2026-05-05 01:57 42.01523 -88.33074 10743 ft 265 kts 275°
2026-05-05 01:57 42.01699 -88.35584 11257 ft 275 kts 275°
2026-05-05 01:57 42.01879 -88.38190 11775 ft 284 kts 275°
2026-05-05 01:57 42.02062 -88.40849 12295 ft 293 kts 275°
2026-05-05 01:58 42.02253 -88.43622 12836 ft 301 kts 275°
2026-05-05 01:58 42.02448 -88.46468 13376 ft 309 kts 275°
2026-05-05 01:58 42.02644 -88.49382 13903 ft 316 kts 275°
2026-05-05 01:58 42.02843 -88.52350 14389 ft 322 kts 274°
2026-05-05 01:59 42.03046 -88.55375 14886 ft 328 kts 274°
2026-05-05 01:59 42.03251 -88.58452 15390 ft 333 kts 274°
2026-05-05 01:59 42.03457 -88.61582 15898 ft 337 kts 274°
2026-05-05 01:59 42.03666 -88.64743 16414 ft 341 kts 274°
2026-05-05 02:00 42.03876 -88.67944 16941 ft 345 kts 273°
2026-05-05 02:00 42.04087 -88.71175 17472 ft 348 kts 273°
2026-05-05 02:00 42.04298 -88.74428 17997 ft 351 kts 273°
2026-05-05 02:00 42.04510 -88.77713 18459 ft 353 kts 273°
2026-05-05 02:01 42.04675 -88.81056 18473 ft 368 kts 269°
2026-05-05 02:01 42.04547 -88.84591 18288 ft 382 kts 264°
2026-05-05 02:01 42.04260 -88.88025 18103 ft 369 kts 263°
2026-05-05 02:01 42.03962 -88.91401 17911 ft 358 kts 263°
2026-05-05 02:02 42.03680 -88.94620 18475 ft 340 kts 263°
2026-05-05 02:02 42.03440 -88.97789 18982 ft 342 kts 264°
2026-05-05 02:02 42.03208 -89.01006 19482 ft 348 kts 264°
2026-05-05 02:02 42.02974 -89.04270 19999 ft 353 kts 264°
2026-05-05 02:03 42.02738 -89.07579 20542 ft 357 kts 264°
2026-05-05 02:03 42.02498 -89.10916 21101 ft 360 kts 264°
2026-05-05 02:03 42.02256 -89.14277 21662 ft 362 kts 264°
2026-05-05 02:03 42.02011 -89.17659 22243 ft 363 kts 264°
2026-05-05 02:04 42.01763 -89.21051 22819 ft 364 kts 264°
2026-05-05 02:04 42.01518 -89.24463 23160 ft 372 kts 264°
2026-05-05 02:04 42.01260 -89.27967 23359 ft 380 kts 264°
2026-05-05 02:04 42.00997 -89.31545 23506 ft 390 kts 264°
2026-05-05 02:05 42.00723 -89.35230 23575 ft 401 kts 264°
2026-05-05 02:05 42.00378 -89.39016 23608 ft 413 kts 262°
2026-05-05 02:05 41.99917 -89.42816 23635 ft 414 kts 261°
2026-05-05 02:05 41.99453 -89.46540 23641 ft 395 kts 261°
2026-05-05 02:06 41.99020 -89.50125 23638 ft 382 kts 262°
2026-05-05 02:06 41.98628 -89.53604 23633 ft 371 kts 262°
2026-05-05 02:06 41.98253 -89.56985 23625 ft 361 kts 262°
2026-05-05 02:06 41.97883 -89.60270 23629 ft 351 kts 262°
2026-05-05 02:07 41.97526 -89.63476 23629 ft 342 kts 262°
2026-05-05 02:07 41.97173 -89.66607 23628 ft 334 kts 262°
2026-05-05 02:07 41.96829 -89.69673 23632 ft 327 kts 262°
2026-05-05 02:07 41.96496 -89.72620 23634 ft 321 kts 262°
2026-05-05 02:08 41.96162 -89.75558 23638 ft 315 kts 262°
2026-05-05 02:08 41.95831 -89.78486 23637 ft 318 kts 262°
2026-05-05 02:08 41.95494 -89.81447 23648 ft 322 kts 262°
2026-05-05 02:08 41.95155 -89.84433 23659 ft 325 kts 262°
2026-05-05 02:09 41.94809 -89.87458 23666 ft 328 kts 262°
2026-05-05 02:09 41.94462 -89.90499 23672 ft 331 kts 262°
2026-05-05 02:09 41.94109 -89.93571 23675 ft 334 kts 262°
2026-05-05 02:09 41.93760 -89.96634 23684 ft 337 kts 262°
2026-05-05 02:10 41.93398 -89.99760 23549 ft 344 kts 262°
2026-05-05 02:10 41.93023 -90.02994 23161 ft 357 kts 262°
2026-05-05 02:10 41.92637 -90.06348 22712 ft 366 kts 262°
2026-05-05 02:10 41.92244 -90.09719 22256 ft 365 kts 262°
2026-05-05 02:11 41.91853 -90.13092 21804 ft 364 kts 262°
2026-05-05 02:11 41.91460 -90.16455 21359 ft 364 kts 262°
2026-05-05 02:11 41.91065 -90.19814 20939 ft 363 kts 262°
2026-05-05 02:11 41.90675 -90.23160 20513 ft 363 kts 262°
2026-05-05 02:12 41.90280 -90.26510 20087 ft 363 kts 262°
2026-05-05 02:12 41.89492 -90.33187 19252 ft 362 kts 262°
2026-05-05 02:12 41.89096 -90.36517 18846 ft 361 kts 262°
2026-05-05 02:13 41.88703 -90.39803 18445 ft 361 kts 262°
2026-05-05 02:13 41.88313 -90.43110 18049 ft 353 kts 262°
2026-05-05 02:13 41.87928 -90.46316 17607 ft 342 kts 262°
2026-05-05 02:13 41.87555 -90.49434 17177 ft 333 kts 262°
2026-05-05 02:14 41.87192 -90.52463 16754 ft 325 kts 262°
2026-05-05 02:14 41.86835 -90.55427 16353 ft 318 kts 262°
2026-05-05 02:14 41.86487 -90.58323 15958 ft 311 kts 262°
2026-05-05 02:14 41.86145 -90.61160 15577 ft 305 kts 262°
2026-05-05 02:15 41.85807 -90.63948 15203 ft 300 kts 262°
2026-05-05 02:15 41.85473 -90.66696 14847 ft 296 kts 262°
2026-05-05 02:15 41.85144 -90.69400 14504 ft 292 kts 262°
2026-05-05 02:15 41.84819 -90.72062 14170 ft 288 kts 262°
2026-05-05 02:16 41.84501 -90.74665 13847 ft 285 kts 261°
2026-05-05 02:16 41.84183 -90.77274 13527 ft 282 kts 261°
2026-05-05 02:16 41.83867 -90.79855 13188 ft 279 kts 261°
2026-05-05 02:16 41.83555 -90.82406 12840 ft 276 kts 261°
2026-05-05 02:17 41.83245 -90.84937 12497 ft 273 kts 261°
2026-05-05 02:17 41.82937 -90.87436 12167 ft 271 kts 261°
2026-05-05 02:17 41.82630 -90.89915 11846 ft 268 kts 261°
2026-05-05 02:17 41.82326 -90.92367 11531 ft 265 kts 261°
2026-05-05 02:18 41.82029 -90.94799 11220 ft 263 kts 261°
2026-05-05 02:18 41.81733 -90.97210 10915 ft 260 kts 261°
2026-05-05 02:18 41.81437 -90.99592 10617 ft 258 kts 260°
2026-05-05 02:18 41.81142 -91.01948 10325 ft 255 kts 260°
2026-05-05 02:19 41.80853 -91.04254 10042 ft 253 kts 260°
2026-05-05 02:19 41.80563 -91.06567 9766 ft 250 kts 260°
2026-05-05 02:19 41.80279 -91.08853 9482 ft 248 kts 260°
2026-05-05 02:19 41.79994 -91.11123 9185 ft 245 kts 260°
2026-05-05 02:20 41.79712 -91.13364 8898 ft 243 kts 260°
2026-05-05 02:20 41.79430 -91.15586 8613 ft 241 kts 260°
2026-05-05 02:20 41.79249 -91.17050 8416 ft 239 kts 261°
2026-05-05 02:20 41.78991 -91.19241 8134 ft 237 kts 261°
2026-05-05 02:21 41.78735 -91.21408 7874 ft 234 kts 261°
2026-05-05 02:21 41.78472 -91.23558 7598 ft 232 kts 261°
2026-05-05 02:21 41.78210 -91.25678 7329 ft 230 kts 261°
2026-05-05 02:21 41.77863 -91.28460 6986 ft 226 kts 261°
2026-05-05 02:22 41.77687 -91.29858 6820 ft 225 kts 261°
2026-05-05 02:22 41.77427 -91.31911 6573 ft 222 kts 261°
2026-05-05 02:22 41.77165 -91.33939 6319 ft 220 kts 261°
2026-05-05 02:22 41.76907 -91.35946 6057 ft 217 kts 261°
2026-05-05 02:23 41.76655 -91.37901 5797 ft 214 kts 262°
2026-05-05 02:23 41.76404 -91.39854 5547 ft 211 kts 262°
2026-05-05 02:23 41.76156 -91.41787 5308 ft 209 kts 263°
2026-05-05 02:23 41.75916 -91.43701 5061 ft 207 kts 262°
2026-05-05 02:24 41.75665 -91.45589 4817 ft 205 kts 262°
2026-05-05 02:24 41.75405 -91.47460 4601 ft 204 kts 262°
2026-05-05 02:24 41.75142 -91.49301 4402 ft 194 kts 264°
2026-05-05 02:24 41.74916 -91.50988 4395 ft 175 kts 264°
2026-05-05 02:25 41.74828 -91.52557 4228 ft 162 kts 285°
2026-05-05 02:25 41.75433 -91.53710 4046 ft 148 kts 313°
2026-05-05 02:25 41.76120 -91.54698 3875 ft 146 kts 313°
2026-05-05 02:25 41.76818 -91.55667 3692 ft 142 kts 314°
2026-05-05 02:26 41.77494 -91.56575 3538 ft 132 kts 316°
2026-05-05 02:26 41.78133 -91.57413 3366 ft 127 kts 318°
2026-05-05 02:26 41.78770 -91.58227 3145 ft 127 kts 319°
2026-05-05 02:26 41.79429 -91.59050 2982 ft 132 kts 319°
2026-05-05 02:27 41.80095 -91.59920 2794 ft 136 kts 318°
2026-05-05 02:27 41.80775 -91.60822 2612 ft 138 kts 319°
2026-05-05 02:27 41.81466 -91.61716 2495 ft 137 kts 320°
2026-05-05 02:27 41.82156 -91.62617 2304 ft 140 kts 320°
2026-05-05 02:28 41.82851 -91.63516 2133 ft 134 kts 320°
2026-05-05 02:28 41.83534 -91.64381 1964 ft 138 kts 320°
2026-05-05 02:28 41.84234 -91.65276 1800 ft 137 kts 320°
2026-05-05 02:28 41.84900 -91.66114 1616 ft 127 kts 320°
2026-05-05 02:29 41.85554 -91.66911 1504 ft 132 kts 321°
2026-05-05 02:29 41.86229 -91.67775 1407 ft 134 kts 317°
2026-05-05 02:29 41.86892 -91.68648 1165 ft 132 kts 319°
2026-05-05 02:29 41.87545 -91.69491 975 ft 131 kts 319°
2026-05-05 02:30 41.88184 -91.70304 860 ft 113 kts 318°
2026-05-05 02:30 41.88628 -91.70886 868 ft 66 kts 316°
2026-05-05 02:30 41.88912 -91.71251 874 ft 49 kts 315°
2026-05-05 02:30 41.89084 -91.71463 877 ft 23 kts 334°
2026-05-05 02:31 41.89163 -91.71399 876 ft 15 kts 88°
2026-05-05 02:31 41.89114 -91.71313 875 ft 11 kts 137°
2026-05-05 02:31 41.89057 -91.71241 874 ft 12 kts 137°
2026-05-05 02:31 41.88991 -91.71158 873 ft 14 kts 137°
2026-05-05 02:32 41.88917 -91.71065 872 ft 15 kts 136°
2026-05-05 02:32 41.88839 -91.70957 870 ft 17 kts 134°
2026-05-05 02:32 41.88753 -91.70839 868 ft 18 kts 136°
2026-05-05 02:32 41.88687 -91.70725 867 ft 13 kts 82°
2026-05-05 02:33 41.88710 -91.70607 867 ft 13 kts 89°
2026-05-05 02:33 41.88710 -91.70503 866 ft 8 kts 89°
2026-05-05 02:33 41.88711 -91.70424 866 ft 9 kts 89°
2026-05-05 02:33 41.88724 -91.70355 866 ft 7 kts 36°
2026-05-05 02:34 41.88767 -91.70332 866 ft 6 kts 342°
2026-05-05 02:34 41.88774 -91.70354 866 ft 3 kts 235°
2026-05-05 02:34 41.88741 -91.70352 866 ft 11 kts 149°
2026-05-05 02:34 41.88708 -91.70256 866 ft 12 kts 95°
2026-05-05 02:35 41.88709 -91.70172 866 ft 8 kts 66°
2026-05-05 02:35 41.88731 -91.70136 866 ft 2 kts 16°
2026-05-05 02:35 41.88740 -91.70135 866 ft 2 kts
2026-05-05 02:35 41.88747 -91.70134 866 ft 0 kts